Regional Weather Roundup
Issued by NWS

Home | Current Version | Previous Version | Graphics & Text | Print | Product List | Glossary On
Versions: 1 2 3 4 5 6 7 8 9 10 11 12 13 14 15 16 17 18 19 20 21 22 23 24 25 26 27 28 29 30 31 32 33 34 35 36 37 38 39 40 41 42 43 44 45 46 47 48 49 50
000
ASUS43 KFSD 040102
RWRSD

WEATHER ROUNDUP FOR SOUTH DAKOTA
NATIONAL WEATHER SERVICE SIOUX FALLS SD
800 PM CDT SUN MAY 03 2015

NOTE: "FAIR" INDICATES FEW OR NO CLOUDS BELOW 12,000 FEET WITH NO
SIGNIFICANT WEATHER AND/OR OBSTRUCTIONS TO VISIBILITY.


SDZ001>005-009-010-012>017-040200-
NORTHWEST AND NORTH CENTRAL SOUTH DAKOTA

CITY           SKY/WX    TMP DP  RH WIND       PRES   REMARKS
BUFFALO          N/A     58  35  42 SE9       29.98R
FAITH            N/A     60  25  26 NE8       30.03R
MOBRIDGE       MOCLDY    65  26  23 N12       29.98R
$$

SDZ012>016-024>037-041>051-057-063-072>074-040200-
SOUTHWEST AND SOUTH CENTRAL SOUTH DAKOTA

CITY           SKY/WX    TMP DP  RH WIND       PRES   REMARKS
RAPID CTY ARPT MOCLDY    63  34  33 NE13      30.03R
PIERRE         CLEAR     67  27  22 N13       29.97R
CUSTER         MOCLDY    54  34  46 E13       30.07R
ELLSWORTH AFB  MOCLDY    64  34  32 E8        30.02R
PHILIP         PTCLDY    66  33  29 NE13      30.00R
PINE RIDGE     PTCLDY    65  38  36 E13G22    29.99R
WINNER         FAIR      69  32  25 N20       29.96R
$$

SDZ004>011-016>023-039-040-040200-
NORTHEAST SOUTH DAKOTA

CITY           SKY/WX    TMP DP  RH WIND       PRES   REMARKS
ABERDEEN       PTCLDY    66  26  22 N10       29.96S
WATERTOWN      CLEAR     62  31  31 N14       29.94R
BROOKINGS      PTCLDY    66  36  32 N17G23    29.91R
SISSETON         N/A     65  25  22 N10       29.92F
$$

SDZ017-020-022-023-036>040-048>070-040200-
SOUTHEAST SOUTH DAKOTA

CITY           SKY/WX    TMP DP  RH WIND       PRES   REMARKS
SIOUX FALLS    PTCLDY    66  38  35 N10       29.85S
HURON          CLEAR     66  31  27 NE12      29.93R
MITCHELL       PTCLDY    69  37  30 N23       29.91R
YANKTON        PTCLDY    66  41  39 N15G25    29.85R
$$

ABBREVIATIONS USED IN REMARKS
   TC - TEMPERATURE IN CELSIUS
  WCI - WIND CHILL INDEX
   HX - HEAT INDEX
  VSB - VISIBILITY




USA.gov is the U.S. government's official web portal to all federal, state and local government web resources and services.